Baku, Azerbaijan

3:56 PM +04 on February 24, 2018 (GMT +0400)
Bina

Weather History for UBBB - February, 2018

Change the Weather History Date:

Sunday, February 18, 2018

  Actual Average Record
Temperature  
Mean Temperature 42 °F -  
Max Temperature 46 °F - - ()
Min Temperature 39 °F - - ()
Degree Days  
Heating Degree Days 22    
Moisture  
Dew Point 41 °F    
Average Humidity 90    
Maximum Humidity 100    
Minimum Humidity 77    
Precipitation  
Precipitation 0.47 in - - ()
Sea Level Pressure  
Sea Level Pressure 30.05 in    
Wind  
Wind Speed 8 mph ()    
Max Wind Speed 21 mph    
Max Gust Speed -    
Visibility 4.7 miles    
Events Rain    
T = Trace of Precipitation, MM = Missing Value Source: Averaged Metar Reports

Daily Weather History Graph

Daily Weather History Graph

Search for Another Location

Airport or City:

Trip Planner

Search our weather history database for the weather conditions in past years. The results will help you decide how hot, cold, wet, or windy it might be!

Date:

Astronomy

Feb. 18, 2018 Rise Set
Actual Time 7:29 AM +04 6:18 PM +04
Civil Twilight 7:01 AM +04 6:45 PM +04
Nautical Twilight 6:30 AM +04 7:17 PM +04
Astronomical Twilight 5:58 AM +04 7:49 PM +04
Moon 8:55 AM +04 (2/18) 8:51 PM +04 (2/18)
Length of Visible Light 11h 44m
Length of Day
10h 48m
Waxing Crescent, 6% of the Moon is Illuminated
Feb 18
Waxing Crescent
Feb 23
First Quarter
Mar 2
Full
Mar 9
Last Quarter
Mar 17
New

Hourly Weather History & Observations

Time (+04) Temp. Windchill Dew Point Humidity Pressure Visibility Wind Dir Wind Speed Gust Speed Precip Events Conditions
12:00 AM 46.4 °F 41.9 °F 42.8 °F 87% 30.15 in 6.2 mi SE 9.2 mph - N/A   Overcast
12:30 AM 46.4 °F 41.9 °F 42.8 °F 87% 30.15 in 6.2 mi SE 9.2 mph - N/A   Overcast
1:00 AM 46 °F - 42 °F 79% 30.13 in 6 mi ESE 4.5 mph - -   Mostly Cloudy
1:00 AM 46.4 °F 42.4 °F 42.8 °F 87% 30.12 in 6.2 mi SE 8.1 mph - N/A   Overcast
1:30 AM 46.4 °F 43.5 °F 42.8 °F 87% 30.12 in 6.2 mi South 5.8 mph - N/A   Overcast
2:00 AM 46.4 °F 42.9 °F 42.8 °F 87% 30.12 in 6.2 mi SSE 6.9 mph - N/A   Overcast
2:30 AM 44.6 °F 40.7 °F 42.8 °F 93% 30.12 in 6.2 mi SSE 6.9 mph - N/A   Overcast
3:00 AM 44.6 °F 40.7 °F 42.8 °F 93% 30.09 in 6.2 mi SE 6.9 mph - N/A   Overcast
3:30 AM 44.6 °F 40.2 °F 42.8 °F 93% 30.09 in 6.2 mi SE 8.1 mph - N/A   Overcast
4:00 AM 46 °F - 41 °F 77% 30.10 in 6 mi ESE 4.5 mph - -   Overcast
4:00 AM 44.6 °F 40.2 °F 42.8 °F 93% 30.09 in 6.2 mi SE 8.1 mph - N/A   Overcast
4:30 AM 44.6 °F 40.7 °F 42.8 °F 93% 30.09 in 6.2 mi SSE 6.9 mph - N/A   Overcast
5:00 AM 44.6 °F 43.1 °F 42.8 °F 93% 30.06 in 6.2 mi ESE 3.5 mph - N/A   Overcast
5:30 AM 44.6 °F 42.2 °F 42.8 °F 93% 30.06 in 6.2 mi ESE 4.6 mph - N/A   Overcast
6:00 AM 44.6 °F 42.2 °F 42.8 °F 93% 30.06 in 6.2 mi SE 4.6 mph - N/A   Overcast
6:30 AM 44.6 °F 43.1 °F 42.8 °F 93% 30.06 in 6.2 mi ESE 3.5 mph - N/A   Overcast
7:00 AM 46 °F - 43 °F 86% 30.03 in 6 mi NNE 4.5 mph - - Rain Light Rain
7:00 AM 44.6 °F - 42.8 °F 93% 30.06 in 6.2 mi ENE 2.3 mph - N/A   Overcast
7:30 AM 44.6 °F 43.1 °F 42.8 °F 93% 30.06 in 6.2 mi East 3.5 mph - N/A   Overcast
8:00 AM 46.4 °F 43.5 °F 41.0 °F 81% 30.06 in 6.2 mi East 5.8 mph - N/A   Overcast
8:30 AM 46.4 °F 42.9 °F 41.0 °F 81% 30.06 in 6.2 mi East 6.9 mph - N/A   Overcast
9:00 AM 46.4 °F 42.9 °F 41.0 °F 81% 30.06 in 6.2 mi East 6.9 mph - N/A   Overcast
9:30 AM 46.4 °F 44.3 °F 41.0 °F 81% 30.06 in 6.2 mi ESE 4.6 mph - N/A   Overcast
10:00 AM 46 °F - 41 °F 77% 30.07 in 6 mi ENE 2.2 mph - -   Overcast
10:00 AM 46.4 °F 45.2 °F 42.8 °F 87% 30.06 in 6.2 mi East 3.5 mph - N/A Rain Light Rain
10:30 AM 46.4 °F 44.3 °F 42.8 °F 87% 30.06 in 6.2 mi ESE 4.6 mph - N/A Rain Light Rain
11:00 AM 46.4 °F 43.5 °F 42.8 °F 87% 30.04 in 6.2 mi ESE 5.8 mph - N/A Rain Light Rain
11:30 AM 46.4 °F 43.5 °F 42.8 °F 87% 30.04 in 6.2 mi ENE 5.8 mph - N/A Rain Light Rain
12:00 PM 46.4 °F 44.3 °F 42.8 °F 87% 30.04 in 4.3 mi ENE 4.6 mph - N/A Rain Light Rain
12:30 PM 46.4 °F 44.3 °F 42.8 °F 87% 30.04 in 2.5 mi NE 4.6 mph - N/A Rain Light Rain
1:00 PM 46 °F - 43 °F 86% 30.03 in 6 mi NNE 4.5 mph - - Rain Light Rain
1:00 PM 46.4 °F 42.4 °F 44.6 °F 93% 30.01 in 2.5 mi NE 8.1 mph - N/A Rain Light Rain
1:30 PM 46.4 °F 42.4 °F 42.8 °F 87% 30.01 in 2.5 mi ENE 8.1 mph - N/A Rain Light Rain
2:00 PM 44.6 °F 39.7 °F 42.8 °F 93% 29.98 in 1.9 mi NE 9.2 mph - N/A Rain Light Rain
2:30 PM 44.6 °F 38.8 °F 42.8 °F 93% 29.98 in 1.9 mi NNE 11.5 mph - N/A Rain Light Rain
3:00 PM 44.6 °F 38.4 °F 42.8 °F 93% 29.98 in 3.1 mi NNE 12.7 mph - N/A Rain Light Rain
3:30 PM 42.8 °F 36.2 °F 42.8 °F 100% 29.98 in 3.1 mi NNE 12.7 mph - N/A Rain Light Rain
4:00 PM 39 °F - 37 °F 91% 30.05 in 2 mi NW 17.9 mph - - Rain Light Rain
4:00 PM 42.8 °F 36.6 °F 42.8 °F 100% 29.98 in 2.5 mi NNE 11.5 mph - N/A Rain Light Rain
4:30 PM 42.8 °F 37.0 °F 41.0 °F 93% 30.01 in 2.5 mi NNE 10.4 mph - N/A Rain Light Rain
5:00 PM 42.8 °F 36.6 °F 41.0 °F 93% 30.01 in 3.1 mi NNE 11.5 mph - N/A Rain Light Rain
5:30 PM 41.0 °F 32.5 °F 41.0 °F 100% 29.98 in 3.1 mi NNE 17.3 mph - N/A Rain Light Rain
6:00 PM 41.0 °F 32.5 °F 39.2 °F 93% 29.98 in 2.5 mi NNE 17.3 mph - N/A Rain Light Rain
6:30 PM 39.2 °F 30.2 °F 39.2 °F 100% 30.01 in 3.1 mi North 17.3 mph - N/A Rain Light Rain
7:00 PM 39 °F - 38 °F 92% 30.01 in 6 mi NNW 13.4 mph - - Rain Light Rain
7:00 PM 39.2 °F 30.2 °F 37.4 °F 93% 30.01 in 3.1 mi North 17.3 mph - N/A Rain Light Rain
7:30 PM 39.2 °F 30.5 °F 39.2 °F 100% 30.01 in 3.1 mi North 16.1 mph - N/A Rain Light Rain
8:00 PM 41.0 °F 32.5 °F 39.2 °F 93% 30.01 in 3.1 mi North 17.3 mph - N/A Rain Light Rain
8:30 PM 41.0 °F 32.8 °F 39.2 °F 93% 30.01 in 3.7 mi North 16.1 mph - N/A Rain Light Rain
9:00 PM 41.0 °F 32.5 °F 39.2 °F 93% 30.01 in 3.7 mi North 17.3 mph - N/A Rain Light Rain
9:30 PM 39.2 °F 29.8 °F 39.2 °F 100% 30.04 in 3.1 mi North 18.4 mph - N/A Rain Light Rain
10:00 PM 39 °F - 37 °F 91% 30.05 in 2 mi NW 17.9 mph - - Rain Light Rain
10:00 PM 39.2 °F 29.6 °F 37.4 °F 93% 30.04 in 3.1 mi NNW 19.6 mph - N/A Rain Light Rain
10:30 PM 39.2 °F 29.6 °F 37.4 °F 93% 30.04 in 4.3 mi NNW 19.6 mph - N/A Rain Light Rain
11:00 PM 39.2 °F 29.3 °F 37.4 °F 93% 30.04 in 4.3 mi NNW 20.7 mph - N/A Rain Light Rain